EW7158 Weather Reports


time (UTC)temp
C
wind
direction
speed
KPH
gust
KPH
rain 1hr
cm
rain 24hr
cm
rain mn
cm
humidity
%
barometer
mb
20260504150615 14 135 0.0 0.0 0.00 0.00 0.00 55 1011.9
20260504140835 13 135 0.0 0.0 0.00 0.00 0.00 52 1011.6
20260504090136 15 135 0.0 0.0 0.00 0.00 0.00 47 1011.2
20260504081336 16 202 0.0 1.6 0.00 0.00 0.00 46 1011.1
20260504080336 16 202 0.0 0.0 0.00 0.00 0.00 46 1011.2
20260504050545 18 202 0.0 0.0 0.00 0.00 0.00 46 1011.2
20260504045559 18 202 0.0 1.6 0.00 0.00 0.00 47 1011.2
20260504044601 18 202 0.0 0.0 0.00 0.00 0.00 47 1011.2
20260504044446 18 202 0.0 1.6 0.00 0.00 0.00 47 1011.3
20260504043446 19 202 0.0 0.0 0.00 0.00 0.00 47 1011.1
20260504043402 19 202 1.6 1.6 0.00 0.00 0.00 46 1011.1
20260504041444 19 202 1.6 3.2 0.00 0.00 0.00 47 1011.3
20260504040445 19 202 0.0 3.2 0.00 0.00 0.00 47 1011.2
20260504035501 19 225 3.2 3.2 0.00 0.00 0.00 47 1011.1
20260504034443 19 225 0.0 1.6 0.00 0.00 0.00 47 1011.1
20260504033444 19 225 1.6 1.6 0.00 0.00 0.00 48 1011.1
20260504033400 19 225 0.0 1.6 0.00 0.00 0.00 48 1011.0
20260504032346 20 225 1.6 1.6 0.00 0.00 0.00 48 1011.0
20260504032244 20 225 1.6 1.6 0.00 0.00 0.00 48 1010.9
20260504031244 20 225 1.6 3.2 0.00 0.00 0.00 48 1010.9
20260504030344 21 225 3.2 4.8 0.00 0.00 0.00 49 1011.0
20260504024346 21 225 3.2 4.8 0.00 0.00 0.00 49 1011.0
20260504023344 21 225 4.8 4.8 0.00 0.00 0.00 49 1011.0
20260504022346 21 225 3.2 4.8 0.00 0.00 0.00 50 1011.0
20260504021444 21 225 3.2 4.8 0.00 0.00 0.00 49 1011.1
20260504020500 21 225 3.2 4.8 0.00 0.00 0.00 51 1011.2
20260504015545 21 225 1.6 4.8 0.00 0.00 0.00 51 1011.4
20260504014544 21 225 4.8 6.4 0.00 0.00 0.00 51 1011.3
20260504013643 22 225 4.8 6.4 0.00 0.00 0.00 51 1011.5
20260504012644 22 225 3.2 3.2 0.00 0.00 0.00 52 1011.6
20260504010644 22 202 1.6 4.8 0.00 0.00 0.00 51 1011.6
20260504005701 22 202 1.6 4.8 0.00 0.00 0.00 51 1011.7
20260504004751 23 202 1.6 3.2 0.00 0.00 0.00 53 1011.7
20260504003745 23 202 0.0 1.6 0.00 0.00 0.00 53 1011.8
20260504002746 23 180 0.0 1.6 0.00 0.00 0.00 53 1011.9
20260504001843 23 180 0.0 1.6 0.00 0.00 0.00 53 1012.1
20260504000844 23 180 0.0 1.6 0.00 0.00 0.00 53 1012.1
20260503235845 23 202 1.6 3.2 0.00 0.00 0.00 54 1012.1
20260503234845 23 202 1.6 3.2 0.00 0.00 0.00 54 1012.2
20260503233944 23 202 1.6 1.6 0.00 0.00 0.00 54 1012.3
20260503232943 23 225 1.6 3.2 0.00 0.00 0.00 54 1012.5
20260503231945 23 225 3.2 4.8 0.00 0.00 0.00 54 1012.6
20260503230946 23 187 0.0 1.6 0.00 0.00 0.00 55 1012.6
20260503225944 23 63 0.0 4.8 0.00 0.00 0.00 56 1012.7
20260503225845 23 87 0.0 1.6 0.00 0.00 0.00 56 1012.7
20260503224844 23 119 0.0 0.0 0.00 0.00 0.00 55 1012.8
20260503224744 23 67 0.0 0.0 0.00 0.00 0.00 56 1012.8
20260503223744 24 152 0.0 0.0 0.00 0.00 0.00 56 1012.8
20260503221847 24 67 0.0 1.6 0.00 0.00 0.00 57 1013.2
20260503220943 24 154 0.0 1.6 0.00 0.00 0.00 57 1013.1
20260503215943 24 202 0.0 1.6 0.00 0.00 0.00 58 1013.3
20260503214001 24 202 1.6 3.2 0.00 0.00 0.00 59 1013.6
20260503211001 24 225 1.6 3.2 0.00 0.00 0.00 61 1013.8
20260503205059 23 201 0.0 1.6 0.00 0.00 0.00 61 1013.9
20260503204144 23 202 1.6 3.2 0.00 0.00 0.00 62 1014.1
20260503203243 23 225 3.2 4.8 0.00 0.00 0.00 63 1014.1
20260503202245 23 105 0.0 3.2 0.00 0.00 0.00 64 1014.3
20260503201244 22 176 0.0 1.6 0.00 0.00 0.00 64 1014.5
20260503200245 22 61 1.6 4.8 0.00 0.00 0.00 65 1014.5
20260503195244 22 179 1.6 6.4 0.00 0.00 0.00 65 1014.6
20260503194343 22 213 3.2 4.8 0.00 0.00 0.00 66 1014.6
20260503193347 22 157 0.0 1.6 0.00 0.00 0.00 66 1014.7
20260503191500 21 90 1.6 3.2 0.00 0.00 0.00 68 1014.9
20260503185643 21 112 0.0 0.0 0.00 0.00 0.00 68 1014.9
20260503184644 20 45 0.0 0.0 0.00 0.00 0.00 70 1015.0
20260503183701 20 135 0.0 1.6 0.00 0.00 0.00 69 1015.3
20260503182744 20 180 0.0 1.6 0.00 0.00 0.00 70 1015.4
20260503181744 20 164 0.0 1.6 0.00 0.00 0.00 71 1015.4
20260503180746 19 135 0.0 1.6 0.00 0.00 0.00 71 1015.6
20260503175843 19 67 0.0 1.6 0.00 0.00 0.00 71 1015.7
20260503174845 18 67 0.0 1.6 0.00 0.00 0.00 71 1015.8
20260503173845 18 180 0.0 0.0 0.00 0.00 0.00 71 1015.9
20260503172843 18 90 0.0 1.6 0.00 0.00 0.00 72 1016.1
20260503170844 17 22 0.0 0.0 0.00 0.00 0.00 72 1016.1